Regional Weather Roundup
Issued by NWS Sterling, VA

Home | Current Version | Previous Version | Text Only | Print | Product List | Glossary On
Versions: 1 2 3 4 5 6 7 8 9 10 11 12 13 14 15 16 17 18 19 20 21 22 23 24 25 26 27 28 29 30 31 32 33 34 35 36 37 38 39 40 41 42 43 44 45 46 47 48 49 50
122
ASUS41 KLWX 230210
RWRLWX

REGIONAL WEATHER ROUNDUP
NATIONAL WEATHER SERVICE BALTIMORE MD/WASHINGTON DC
1000 PM EDT FRI SEP 22 2017

Note: "FAIR" indicates few or no clouds below 12,000 feet
with no significant weather and/or obstructions to visibility.
 TC=TEMPERATURE CELSIUS

 * =Non NWS site. Station does not report precipitation (e.g. rain,
    snow, etc.), thunder, or fog.

DCZ001-MDZ009-015-VAZ040>042-051-053>054-230300-
WASHINGTON METRO

CITY           SKY/WX    TMP DP  RH WIND       PRES   REMARKS
WASHINGTON NAT MOCLDY    76  71  85 CALM      30.01S
DULLES         CLOUDY    67  65  93 CALM      30.03R
ANDREWS AFB    MOCLDY    65  63  92 CALM      30.01S
FT BELVOIR     CLOUDY    67  65  94 CALM      30.02R
QUANTICO       CLOUDY    71  69  93 NW8       30.03R
COLLEGE PARK*  PTCLDY    66  65  96 CALM      30.01S
LEESBURG*      CLOUDY    70  68  94 CALM      30.04R
MANASSAS*      PTCLDY    65  64  97 CALM      30.03R
GAITHERSBURG*  PTCLDY    66  65  96 CALM      30.04R

$$

MDZ006>007-011-014-230300-
BALTIMORE METRO

CITY           SKY/WX    TMP DP  RH WIND       PRES   REMARKS
BWI AIRPORT    CLOUDY    66  66 100 W3        30.00R
MD SCIENCE CTR   N/A     77  59  53 MISG      30.01R
MARTIN STATE   CLEAR     68  66  94 NW3       30.01R
ANNAPOLIS      MOCLDY    72  70  93 CALM      30.00R
FORT MEADE*    PTCLDY    63  61  94 CALM      30.03S

$$

MDZ012-015-019>023-230300-
MARYLAND EASTERN SHORE

CITY           SKY/WX    TMP DP  RH WIND       PRES   REMARKS
OCEAN CITY     PTCLDY    69  65  86 NW5       29.98S
SALISBURY      CLOUDY    67  66  97 CALM      29.98S
CAMBRIDGE*     CLEAR     66  64  94 CALM      29.99S
EASTON*        CLEAR     68  64  88 CALM      30.03R

$$

MDZ017>025-230300-
SOUTHERN MARYLAND

CITY           SKY/WX    TMP DP  RH WIND       PRES   REMARKS
PATUXENT RIVER MOCLDY    68  66  93 SW6       30.00R
ST INIGOES     PTCLDY    66  65  96 CALM      29.99S
LEONARDTOWN*   PTCLDY    66  64  94 CALM      30.02S

$$

MDZ003>005-230300-
NORTH CENTRAL MARYLAND

CITY           SKY/WX    TMP DP  RH WIND       PRES   REMARKS
FREDERICK*     FOG       68  68 100 CALM      30.05R VSB 1
HAGERSTOWN APT CLOUDY    75  59  57 CALM      30.04R
WESTMINSTER*   NOT AVBL

$$

MDZ501>502-230300-
WESTERN MARYLAND

CITY           SKY/WX    TMP DP  RH WIND       PRES   REMARKS
OAKLAND*       CLEAR     64  57  77 N3        30.15S
CUMBERLAND*    CLEAR     70  59  68 CALM      30.10S

$$

VAZ025>031-230300-
SHENANDOAH VALLEY

CITY           SKY/WX    TMP DP  RH WIND       PRES   REMARKS
WINCHESTER*    MOCLDY    64  63  94 CALM      30.05R
FRONT ROYAL*   MOCLDY    64  64 100 CALM      30.04S
LURAY*         CLOUDY    68  63  83 CALM      30.06S
NEW MARKET*    MOCLDY    66  61  84 CALM      30.06S
STAUNTON*      CLOUDY    67  63  87 CALM      30.10R
WAYNESBORO*    MOCLDY    68  65  89 CALM      30.10R

$$

WVZ021-048>050-054>055-230300-
EASTERN WEST VIRGINIA PANHANDLE

CITY           SKY/WX    TMP DP  RH WIND       PRES   REMARKS
MARTINSBURG    PTCLDY    66  57  72 CALM      30.03R
PETERSBURG*    MOCLDY    69  65  86 CALM      30.09R

$$

VAZ036>039-050-230300-
CENTRAL FOOTHILLS

CITY           SKY/WX    TMP DP  RH WIND       PRES   REMARKS
CHARLOTTESVILL PTCLDY    73  69  87 CALM      30.05R
CULPEPER*      MOCLDY    68  67  98 CALM      30.04S
ORANGE*        CLOUDY    66  63  88 CALM      30.04R
GORDONSVILLE*  CLOUDY    68  67  99 CALM      30.04R
WARRENTON*     MOCLDY    64  60  88 CALM      30.03R

$$

VAZ055>057-230300-
NORTH AND CENTRAL PIEDMONT

CITY           SKY/WX    TMP DP  RH WIND       PRES   REMARKS
FREDERICKSBRG* CLOUDY    69  67  94 CALM      30.01S
STAFFORD*      CLOUDY    65  65 100 NW3       30.07R

$$

NCZ024-NYZ072-PAZ021-071-VAZ022-071-230300-
OTHER REGIONAL OBSERVATIONS

CITY           SKY/WX    TMP DP  RH WIND       PRES   REMARKS
NEW YORK CITY  CLEAR     74  53  48 NE7       30.00S
PHILADELPHIA   MOCLDY    73  56  54 NW7       29.98R
PITTSBURGH     MOCLDY    75  57  53 N3        30.10S
ROANOKE        MOCLDY    72  64  76 CALM      30.09R
RICHMOND       PTCLDY    68  66  93 CALM      30.02R
RALEIGH        MOCLDY    70  65  84 CALM      30.03S

$$

ANZ530>537-230300-
MARINE OBSERVATIONS

STATION/POSITION TIME  TEMP    WIND        PRES
                       AIR SEA DIR/SP/G
                 (UTC) (F)     (DEG/KT/KT) (MB)
THOMAS PT LIGHT  0200   74 76  300/  7/  8   N/A
BALT KEY BRIDGE  0142   76     310/  4/  6 1015.7R
COVE POINT       0142   75     320/  3/  5 1016.4R
LEWISETTA        0142   73 78  330/  2/  2 1015.8R
SOLOMONS ISLAND  0142   72 76  280/  2/  3 1015.4R
PINEY POINT      0148          330/  3/  4   N/A

$$





USA.gov is the U.S. government's official web portal to all federal, state and local government web resources and services.